DW4691 Weather Reports


time (UTC)temp
C
wind
direction
speed
KPH
gust
KPH
rain 1hr
cm
rain 24hr
cm
rain mn
cm
humidity
%
barometer
mb
20260504223047 26 0 0.0 6.4 0.00 0.00 0.00 64 1010.7
20260504221546 27 151 0.0 8.0 0.00 0.00 0.00 63 1010.9
20260504220052 27 0 0.0 6.4 0.00 0.00 0.00 63 1011.0
20260504214552 27 0 0.0 3.2 0.00 0.00 0.00 62 1011.0
20260504213058 27 0 0.0 3.2 0.00 0.00 0.00 62 1011.3
20260504211547 27 0 0.0 6.4 0.00 0.00 0.00 60 1011.5
20260504210057 28 0 0.0 6.4 0.00 0.00 0.00 57 1011.7
20260504204558 28 0 0.0 4.8 0.00 0.00 0.00 56 1011.9
20260504203049 28 82 0.0 3.2 0.00 0.00 0.00 56 1012.1
20260504201547 27 0 0.0 4.8 0.00 0.00 0.00 59 1012.5
20260504200047 27 0 0.0 9.7 0.00 0.00 0.00 59 1012.8
20260504194545 27 168 0.0 4.8 0.00 0.00 0.00 60 1013.1
20260504193044 27 134 0.0 6.4 0.00 0.00 0.00 58 1013.1
20260504191553 27 0 0.0 8.0 0.00 0.00 0.00 58 1013.2
20260504190052 27 0 0.0 3.2 0.00 0.00 0.00 58 1013.6
20260504184546 27 0 0.0 3.2 0.00 0.00 0.00 62 1013.7
20260504183045 27 121 0.0 8.0 0.00 0.00 0.00 56 1013.9
20260504181550 27 0 0.0 8.0 0.00 0.00 0.00 56 1013.9
20260504180106 26 140 1.6 6.4 0.00 0.00 0.00 59 1014.2
20260504174547 26 0 0.0 6.4 0.00 0.00 0.00 59 1014.3
20260504173058 26 0 0.0 6.4 0.00 0.00 0.00 61 1014.3
20260504171543 26 0 0.0 9.7 0.00 0.00 0.00 60 1014.5
20260504081556 15 0 0.0 0.0 0.00 0.00 0.00 85 1016.2
20260504044552 17 0 0.0 0.0 0.00 0.00 0.00 74 1018.2
20260504043053 17 0 0.0 0.0 0.00 0.00 0.00 72 1018.4
20260504041551 18 0 0.0 0.0 0.00 0.00 0.00 71 1018.3
20260504040053 18 0 0.0 0.0 0.00 0.00 0.00 68 1018.4
20260504034557 18 0 0.0 0.0 0.00 0.00 0.00 67 1018.2
20260504033048 19 0 0.0 0.0 0.00 0.00 0.00 64 1018.3
20260504031543 19 0 0.0 0.0 0.00 0.00 0.00 62 1018.2
20260504030051 19 0 0.0 0.0 0.00 0.00 0.00 62 1018.0
20260504024553 20 0 0.0 0.0 0.00 0.00 0.00 63 1018.0
20260504023046 20 0 0.0 1.6 0.00 0.00 0.00 62 1017.9
20260504021549 20 0 0.0 0.0 0.00 0.00 0.00 63 1017.8
20260504020044 20 0 0.0 0.0 0.00 0.00 0.00 62 1017.6
20260504014541 20 0 0.0 0.0 0.00 0.00 0.00 61 1017.4
20260504013107 21 0 0.0 0.0 0.00 0.00 0.00 57 1017.3
20260504011548 21 0 0.0 0.0 0.00 0.00 0.00 57 1017.2
20260504010044 21 0 0.0 0.0 0.00 0.00 0.00 55 1017.3
20260504004545 22 0 0.0 0.0 0.00 0.00 0.00 55 1017.3
20260504003047 23 0 0.0 0.0 0.00 0.00 0.00 53 1017.3
20260504001550 24 0 0.0 1.6 0.00 0.00 0.00 47 1017.3
20260504000053 25 0 0.0 4.8 0.00 0.00 0.00 47 1017.3
20260503234548 25 0 0.0 0.0 0.00 0.00 0.00 47 1017.5
20260503233053 25 0 0.0 0.0 0.00 0.00 0.00 42 1017.5
20260503231546 26 0 0.0 0.0 0.00 0.00 0.00 43 1017.5
20260503230045 26 0 0.0 1.6 0.00 0.00 0.00 44 1017.6
20260503224541 26 0 0.0 3.2 0.00 0.00 0.00 40 1017.8